TimeCEST,TemperatureF,Dew PointF,Humidity,Sea Level PressureIn,VisibilityMPH,Wind Direction,Wind SpeedMPH,Gust SpeedMPH,PrecipitationIn,Events,Conditions,WindDirDegrees,DateUTC
12:28 AM,55.4,53.6,94,29.47,4.3,WSW,18.4,-,N/A,Rain,Rain,250,2013-03-30 23:28:00
12:36 AM,55.4,53.6,94,29.47,3.7,WSW,19.6,-,N/A,Rain,Heavy Rain,250,2013-03-30 23:36:00
12:55 AM,55.4,53.6,94,29.47,3.7,West,16.1,-,N/A,Rain,Heavy Rain,260,2013-03-30 23:55:00
1:00 AM,55,53,91,29.49,4,West,16.1,,,Rain,Heavy Rain,260,2013-03-31 00:00:00
1:04 AM,55.4,53.6,94,29.47,4.3,WSW,17.3,-,N/A,Rain-Thunderstorm,Thunderstorms and Rain,240,2013-03-31 00:04:00
1:55 AM,53.6,51.8,94,29.47,4.3,NNW,4.6,-,N/A,Rain,Heavy Rain,330,2013-03-31 00:55:00
3:55 AM,51.8,50.0,94,29.47,5.0,SSE,3.5,-,N/A,Rain,Light Rain,150,2013-03-31 01:55:00
5:00 AM,55,53,91,29.48,5,West,9.2,,,,Mist,260,2013-03-31 03:00:00
5:55 AM,55.4,53.6,94,29.47,5.0,WSW,11.5,-,N/A,,Mostly Cloudy,250,2013-03-31 03:55:00
6:55 AM,55.4,50.0,82,29.47,4.3,West,15.0,-,N/A,,Mostly Cloudy,260,2013-03-31 04:55:00
8:00 AM,55,51,83,29.50,5,West,15.0,,,,Mostly Cloudy,270,2013-03-31 06:00:00
9:55 AM,57.2,53.6,88,29.50,6.2,West,19.6,-,N/A,,Scattered Clouds,270,2013-03-31 07:55:00
10:55 AM,59.0,51.8,77,29.53,6.2,West,19.6,-,N/A,,Scattered Clouds,260,2013-03-31 08:55:00
11:00 AM,59,51,67,29.54,7,West,19.6,,,,Partly Cloudy,260,2013-03-31 09:00:00
11:55 AM,59.0,50.0,72,29.53,6.2,West,18.4,-,N/A,,Scattered Clouds,260,2013-03-31 09:55:00
1:55 PM,60.8,50.0,68,29.56,6.2,WSW,19.6,-,N/A,,Scattered Clouds,250,2013-03-31 11:55:00
2:00 PM,60,50,61,29.59,7,WSW,19.6,,,,Partly Cloudy,250,2013-03-31 12:00:00
4:55 PM,59.0,48.2,67,29.59,6.2,WSW,21.9,-,N/A,,Scattered Clouds,240,2013-03-31 14:55:00
5:00 PM,58,47,59,29.59,7,WSW,21.9,,,,Mostly Cloudy,240,2013-03-31 15:00:00
5:55 PM,57.2,46.4,67,29.59,6.2,WSW,18.4,-,N/A,,Scattered Clouds,250,2013-03-31 15:55:00
6:55 PM,57.2,46.4,67,29.59,6.2,WSW,18.4,-,N/A,,Scattered Clouds,250,2013-03-31 16:55:00
7:55 PM,55.4,46.4,72,29.59,6.2,West,19.6,-,N/A,,Scattered Clouds,260,2013-03-31 17:55:00
8:00 PM,55,46,63,29.61,7,West,19.6,,,,Mostly Cloudy,260,2013-03-31 18:00:00
8:55 PM,55.4,48.2,77,29.62,6.2,West,17.3,-,N/A,,Scattered Clouds,260,2013-03-31 18:55:00
9:55 PM,55.4,48.2,77,29.65,6.2,West,19.6,-,N/A,,Scattered Clouds,260,2013-03-31 19:55:00
10:55 PM,55.4,46.4,72,29.65,6.2,West,20.7,-,N/A,,Scattered Clouds,270,2013-03-31 20:55:00
11:00 PM,55,46,64,29.68,7,West,20.7,,,,Mostly Cloudy,270,2013-03-31 21:00:00
12:55 AM,55.4,46.4,72,29.68,6.2,West,18.4,-,N/A,,Scattered Clouds,270,2013-03-31 22:55:00